軌道要素
Epoch 2008 Jan. 15.0 TT = JDT 2454480.5
T 2008 Jan. 16.00584 TT MPC
q 5.5932705 (2000.0) P Q
z +0.0000157 Peri. 47.09693 -0.30837256 -0.72516362
+/-0.0000001 Node 288.73910 -0.94495804 +0.30792601
e 0.9999123 Incl. 139.44874 +0.10936483 +0.61588903
From 4869 observations 2004 July 16-2014 Jan. 9, mean residual 0".5.
|